Observations for Trim Market St
| Time | AQI | Temp °C | Hum % | Pres Pa | CO μg/m³ | H₂S μg/m³ | NO μg/m³ | NO₂ μg/m³ | O₃ μg/m³ | SO₂ μg/m³ | PM1 μg/m³ | PM2.5 μg/m³ | PM10 μg/m³ |
|---|---|---|---|---|---|---|---|---|---|---|---|---|---|
| Monday 17 August 2026 | |||||||||||||
| 17:43 | 2 | 24.8 | 53 | 57,713 | 0 | 0 | 1.18 | 12.4 | 58.04 | 0 | 0.71 | 2.84 | 3.89 |
| 17:42 | 2 | 24.8 | 53 | 57,661 | 0.07 | 0 | 1.15 | 13.38 | 66.38 | 0 | 0 | 2.84 | 3.89 |
| 17:41 | 2 | 24.9 | 53 | 57,819 | 0.07 | 0 | 1.18 | 13.39 | 78.6 | 0 | 0 | 1.82 | 2 |
| 17:39 | 2 | 24.9 | 53 | 58,355 | 0.05 | 0 | 1.22 | 12.35 | 71.8 | 0 | 0 | 2.85 | 3.15 |
| 17:38 | 2 | 24.9 | 53 | 58,418 | 0 | 0 | 1.18 | 12.11 | 74.06 | 0 | 0.71 | 3.36 | 3.88 |
| 17:36 | 2 | 24.9 | 53 | 58,295 | 0 | 0 | 1.23 | 12.23 | 73.37 | 0 | 0 | 2.34 | 2.42 |
| 17:35 | 2 | 24.9 | 53 | 58,252 | 0.07 | 0 | 1.21 | 12.44 | 76.77 | 0 | 0 | 1.83 | 3.15 |
| 17:34 | 2 | 24.9 | 53 | 58,217 | 0 | 0 | 1.27 | 12.25 | 71.44 | 0 | 0.71 | 2.85 | 3.15 |
| 17:31 | 2 | 24.9 | 53 | 58,023 | 0 | 0 | 1.25 | 12.7 | 72.17 | 0 | 0 | 2.33 | 2.42 |
| 17:30 | 2 | 24.9 | 53 | 57,889 | 0 | 0 | 1.25 | 13.01 | 65.27 | 0 | 0 | 2.84 | 3.16 |
| 17:28 | 2 | 24.9 | 53 | 57,592 | 0 | 0 | 1.13 | 12.25 | 69.88 | 0 | 0 | 2.32 | 2.43 |
| 17:27 | 2 | 24.9 | 53 | 57,443 | 0 | 0 | 1.26 | 12.41 | 75.04 | 0 | 0 | 2.32 | 2.44 |
| 17:16 | 2 | 24.7 | 53 | 56,553 | 0 | 0 | 1.3 | 12.41 | 78.97 | 0 | 0.71 | 2.32 | 2.44 |
| 17:15 | 2 | 24.7 | 53 | 56,441 | 0 | 0 | 1.28 | 12.48 | 74.54 | 0 | 0 | 1.8 | 1.98 |
| 17:14 | 2 | 24.7 | 53 | 56,378 | 0 | 0 | 1.21 | 12.77 | 77.86 | 0 | 0 | 1.8 | 1.98 |
| 17:13 | 2 | 24.7 | 53 | 56,378 | 0 | 0 | 1.22 | 13.38 | 87.96 | 0 | 0.71 | 2.32 | 2.44 |
| 17:12 | 2 | 24.7 | 53 | 56,437 | 0 | 0 | 1.17 | 12.71 | 78.81 | 0 | 0 | 2.32 | 2.44 |
| 17:11 | 2 | 24.6 | 53 | 56,447 | 0 | 0 | 1.18 | 12.47 | 82.17 | 0 | 0 | 1.81 | 1.99 |
| 17:10 | 2 | 24.6 | 53 | 56,391 | 0 | 0 | 1.03 | 12.43 | 76.9 | 0 | 0 | 1.81 | 1.99 |
| 17:09 | 2 | 24.6 | 53 | 56,269 | 0 | 0 | 1.04 | 12.26 | 80.06 | 0 | 0 | 2.32 | 2.44 |